Location: Columbus
(29.5618°N, 96.6770°W)
Time: 11:17:14
(UTC-05:00)

Daily predictions for brighter satellites

Satellite Brightness Start Highest point End
(mag) Time Altitude Azimuth Time Altitude Azimuth Time Altitude Azimuth
NOAA 12 4.2 19:55:27 10° SSE 20:00:41 63° ENE 20:05:56 10° N
Cosmos 405 2.9 20:00:51 10° S 20:04:22 76° E 20:07:53 10° N
FREGAT/IRIS 3.1 20:01:31 10° SSE 20:04:23 38° ENE 20:07:16 10° N
IUS-7 SRM-1 4.0 20:05:42 10° S 20:06:46 13° SSE 20:07:55 10° SE
Cosmos 2344 3.6 19:59:45 10° SSW 20:07:32 74° ESE 20:15:29 10° NNE
METEOR-M 4.1 20:07:04 10° SSE 20:12:24 86° ENE 20:17:44 10° N
ATLAS CENTAUR R/B 4.1 20:12:21 10° WNW 20:14:26 15° WSW 20:16:30 10° SW
Yuri Rocket 2.9 20:11:13 10° W 20:15:33 73° S 20:19:20 12° E
Meteor 1-22 Rocket 4.4 20:11:55 10° SSE 20:17:24 52° E 20:23:07 10° NNE
Cosmos 1437 Rocket 2.7 20:14:13 10° S 20:18:08 75° E 20:22:09 10° N
SJ-6B 2.6 20:15:35 10° SSE 20:19:17 63° ENE 20:22:58 10° N
Helios 1B rocket 3.8 20:16:24 10° NE 20:19:19 18° E 20:22:12 10° SE
Lacrosse 4 Rocket 2.7 20:18:41 10° SW 20:22:33 43° WNW 20:26:25 10° N
Resurs 1-3 4.4 20:22:51 10° SE 20:26:39 30° ENE 20:30:27 10° NNE
SWIFT 4.0 20:28:44 10° WSW 20:32:10 23° S 20:34:55 13° SE
Spot 2 Rocket 3.8 20:31:43 10° SE 20:36:34 47° ENE 20:41:27 10° N
Cosmos 1844 Rocket 4.1 20:32:07 10° SW 20:37:25 41° WNW 20:42:44 10° N
Delta 2 Rocket 4.2 20:31:35 10° W 20:38:31 65° S 20:42:52 20° ESE
Cosmos 1758 4.2 20:35:47 10° SSE 20:39:05 26° E 20:42:24 10° NE
GPS 2-05 Rocket1 3.3 20:36:46 10° SW 20:40:11 44° SSE 20:41:43 27° E
Cosmos 192 4.4 20:36:14 10° NNW 20:41:10 85° WSW 20:46:03 10° SSE
FengYun 1-2 T 4.2 20:40:40 10° SSE 20:46:12 85° ENE 20:51:49 10° NNW
Cosmos 2278 Rocket 2.2 20:41:02 10° SSW 20:46:42 89° ESE 20:52:24 10° NNE
USA 215 3.2 20:41:37 10° NE 20:48:10 87° SE 20:54:42 10° SW
CZ-3 Stage 3 4.2 19:39:36 10° WSW 20:48:13 88° N 20:54:41 21° E
Tiangong 1 3.6 20:47:38 10° N 20:48:17 11° NNE 20:48:48 10° NNE
Cosmos 1953 3.0 20:46:48 17° SE 20:49:20 32° E 20:52:59 10° NNE
Cosmos 1378 3.2 20:47:07 10° N 20:50:52 81° W 20:54:36 10° S
Cosmos 1934 Rocket 4.1 20:46:57 10° S 20:53:07 76° W 20:59:14 10° N
H-2A R/B 2.6 20:50:37 10° SSE 20:54:26 86° ENE 20:58:21 10° N
Envisat 4.1 20:54:30 24° ENE 20:54:36 24° ENE 20:58:36 10° NNE
FENGYUN 3A 4.0 20:51:07 10° S 20:56:30 69° WSW 21:01:53 10° NNW
Okean 3 Rocket 3.9 20:54:25 10° N 20:58:35 41° E 20:59:29 36° ESE
Cosmos 2297 3.9 20:53:40 10° S 20:59:03 46° ESE 21:04:31 10° NNE
Cosmos 1125 Rocket 3.6 20:55:00 10° S 20:59:59 50° ESE 21:05:00 10° NNE
Meteor 1-24 Rocket 3.8 21:02:38 10° N 21:08:08 76° W 21:13:50 10° S
ATLAS 5 CENTAUR R/B 3.4 21:06:58 10° S 21:08:19 18° SSE 21:08:19 18° SSE
Meteor 1-4 Rocket 4.4 21:14:46 19° NNE 21:14:46 19° NNE 21:15:52 10° NNE
ALOS 3.8 21:08:14 10° SSW 21:12:32 37° W 21:16:51 10° NNW
GP-B 3.5 21:14:50 44° NE 21:14:50 44° NE 21:18:26 10° N
Cosmos 1544 3.1 21:10:40 10° S 21:14:17 77° W 21:17:55 10° N
Resurs 01 Rocket 2.3 21:10:54 10° S 21:15:12 54° W 21:19:31 10° NNW
Aurora 2 Rocket 3.7 21:14:04 10° SW 21:19:36 34° S 21:19:49 34° SSE
RESURS DK-1 2.4 21:18:23 10° NNW 21:22:06 65° NNE 21:22:06 65° NNE
Cosmos 2082 Rocket 3.6 21:18:25 10° N 21:21:38 22° NE 21:21:38 22° NE
SL-27 R/B 2.8 21:20:59 10° NNW 21:24:14 65° WNW 21:24:14 65° WNW
Meteor 1-29 4.2 21:24:09 10° N 21:26:20 35° N 21:26:20 35° N
Cosmos 2100 Rocket 4.0 21:28:37 46° SE 21:30:10 58° E 21:36:22 10° NNE
Lacrosse 5 4.1 21:26:22 10° W 21:30:24 23° NW 21:34:27 10° N
SeaSat 1 4.4 21:29:44 10° SSW 21:33:49 26° WSW 21:37:56 10° NW
Delta 2 Rocket 4.2 21:33:39 10° WNW 21:37:14 45° NNW 21:37:14 45° NNW
Cosmos 2098 Rocket 4.4 21:31:26 10° S 21:38:03 75° W 21:45:36 10° N
Spot 1 4.5 21:38:33 58° SW 21:39:09 65° W 21:43:50 10° NNW
Delta 128 4.3 21:40:27 10° WSW 21:43:40 45° WSW 21:43:40 45° WSW
Meteor 1-21 Rocket 4.1 21:42:27 10° N 21:48:18 85° E 21:48:21 85° E
Helios 1A 4.1 21:50:45 42° W 21:50:45 42° W 21:54:24 10° NNW
Cosmos 2061 Rocket 4.0 21:56:15 74° NNE 21:56:15 74° NNE 22:02:05 10° N
Cosmos 1867 4.4 21:50:47 10° SW 21:56:01 50° WNW 22:01:20 10° NNE
Cosmos 1833 Rocket 4.5 22:32:07 10° NNW 22:34:24 25° NNW 22:34:24 25° NNW
